Regional Weather Roundup
Issued by NWS

Home | Current Version | Previous Version | Text Only | Print | Product List | Glossary Off
Versions: 1 2 3 4 5 6 7 8 9 10 11 12 13 14 15 16 17 18 19 20 21 22 23 24 25 26 27 28 29 30 31 32 33 34 35 36 37 38 39 40 41 42 43 44 45 46 47 48 49 50

000
ASUS43 KOAX 261710
RWRNE

WEATHER ROUNDUP FOR NEBRASKA
NATIONAL WEATHER SERVICE OMAHA NE
1100 AM CST MON JAN 26 2015

NOTES: SATELLITE DATA IS BEING USED TO AUGMENT CLOUD COVER ABOVE
       12000 FEET.
       "FAIR" INDICATES FEW OR NO CLOUDS BELOW 12,000 FEET WITH NO
       SIGNIFICANT WEATHER AND/OR OBSTRUCTIONS TO VISIBILITY.

  * THESE STATIONS DO NOT REPORT WEATHER SUCH AS RAIN...SNOW OR FOG.

NEZ001>004-019>022-054>056-261800-
NEBRASKA PANHANDLE

CITY           SKY/WX    TMP DP  RH WIND       PRES   REMARKS
SCOTTSBLUFF    SUNNY     47  33  58 NW10      30.20R
ALLIANCE       SUNNY     48  33  56 W14       30.15R
CHADRON        MOSUNNY   52  33  48 W20       30.13R
KIMBALL        SUNNY     57  27  31 NW21G31   30.20R
SIDNEY         SUNNY     57  30  35 NW14      30.20R
$$

NEZ057>060-069>072-079>082-261800-
SOUTHWEST NEBRASKA

CITY           SKY/WX    TMP DP  RH WIND       PRES   REMARKS
NORTH PLATTE   SUNNY     52  33  48 W13       30.11R
IMPERIAL       SUNNY     58  30  34 NW17      30.15R
LEXINGTON      SUNNY     53  34  49 NW17G25   30.06R
MCCOOK         SUNNY     57  32  38 W15       30.11R
OGALLALA       SUNNY     57  32  37 NW17G24   30.15S
$$

NEZ005>010-023>029-035>040-094-261800-
NORTH CENTRAL NEBRASKA

CITY           SKY/WX    TMP DP  RH WIND       PRES   REMARKS
VALENTINE      SUNNY     52  34  50 W13       30.04R
AINSWORTH      SUNNY     53  33  46 NW16G22   30.03R
BROKEN BOW     SUNNY     57  34  41 NW24G31   30.03R
O`NEILL        SUNNY     52  37  57 NW16      29.99R
ORD            SUNNY     53  33  46 NW13      30.00R
THEDFORD       SUNNY     56  33  41 W16       30.09R
$$

NEZ041-046>049-061>064-073>077-083>087-261800-
SOUTH CENTRAL NEBRASKA

CITY           SKY/WX    TMP DP  RH WIND       PRES   REMARKS
GRAND ISLAND   SUNNY     54  35  48 NW22G28   30.01R
AURORA         SUNNY     54  35  48 NW21G31   29.99R
HASTINGS       SUNNY     56  33  42 NW21G30   30.01R
HEBRON         SUNNY     56  33  41 NW17      29.98R
HOLDREGE       SUNNY     58  31  35 NW20G29   30.04R
KEARNEY *      SUNNY     55  34  44 NW17      30.03R
YORK           SUNNY     54  36  50 NW21G28   29.97R
$$

NEZ011>018-030>034-042>045-261800-
NORTHEAST NEBRASKA

CITY           SKY/WX    TMP DP  RH WIND       PRES   REMARKS
NORFOLK        SUNNY     51  36  56 NW18G28   29.95R
ALBION         SUNNY     52  35  52 NW18G25   29.98R
BLAIR          SUNNY     49  37  65 NW17G23   29.91R
COLUMBUS *     SUNNY     52  36  54 NW16      29.99R
FREMONT        SUNNY     52  38  58 NW13G20   29.94R
TEKAMAH        SUNNY     49  38  65 NW22      29.91R
WAYNE          SUNNY     48  38  69 NW16      29.93R
$$

NEZ050>053-065>068-078-088>093-261800-
SOUTHEAST NEBRASKA

CITY           SKY/WX    TMP DP  RH WIND       PRES   REMARKS
LINCOLN        SUNNY     53  36  52 N16G25    29.96R
OMAHA EPPLEY   MOSUNNY   50  36  58 NW9       29.90R
BEATRICE       SUNNY     50  36  57 NW9       29.94S
FALLS CITY     SUNNY     48  34  58 W15       29.92S
NEBRASKA CITY  SUNNY     50  32  49 NW15G21   29.91R
PLATTSMOUTH    SUNNY     47  34  60 NW20      29.89R
$$

NEZ044-045-051>053-067-261800-
OMAHA AREA

CITY           SKY/WX    TMP DP  RH WIND       PRES   REMARKS
OMAHA EPPLEY   MOSUNNY   50  36  58 NW9       29.90R
BLAIR          SUNNY     49  37  65 NW17G23   29.91R
FREMONT        SUNNY     52  38  58 NW13G20   29.94R
MILLARD        SUNNY     48  36  62 NW14G20   29.91R
OFFUTT AFB     SUNNY     48  36  61 NW16      29.90R
PLATTSMOUTH    SUNNY     47  34  60 NW20      29.89R
WAHOO          FAIR      51  35  54 NW18G25   29.93R
$$



USA.gov is the U.S. government's official web portal to all federal, state and local government web resources and services.